AAL340 KCMH-KCMH

Flight info

Callsign AAL340
Flight time 0h 12m
Altitude 30000
Route RDBUV NOWZU JUSEP DJB QWERI NUBER6
Aircraft A20N/M-SDE2E3FGHIRWXY/LB1

Departure

Time 2026-05-07 22:19
Airport John Glenn Columbus International Airport (KCMH)

Arrival

Time 2026-05-07 22:31
Airport John Glenn Columbus International Airport (KCMH)
Time Latitude Longitude Altitude Speed Heading
2026-05-07 22:19 40.24268 -83.05119 13294 ft 457 kts 59°
2026-05-07 22:19 40.25671 -83.01486 12432 ft 440 kts 62°
2026-05-07 22:20 40.26818 -82.97789 11355 ft 434 kts 68°
2026-05-07 22:20 40.27664 -82.94056 10595 ft 421 kts 78°
2026-05-07 22:20 40.27997 -82.90371 10687 ft 386 kts 83°
2026-05-07 22:20 40.28257 -82.87074 10868 ft 355 kts 83°
2026-05-07 22:21 40.28505 -82.83896 10215 ft 353 kts 83°
2026-05-07 22:21 40.28767 -82.80679 9302 ft 358 kts 82°
2026-05-07 22:21 40.29030 -82.77413 8301 ft 361 kts 82°
2026-05-07 22:21 40.29290 -82.74116 7225 ft 366 kts 82°
2026-05-07 22:22 40.29450 -82.70816 6574 ft 360 kts 92°
2026-05-07 22:22 40.28847 -82.67719 6235 ft 344 kts 115°
2026-05-07 22:22 40.27641 -82.65121 6065 ft 324 kts 131°
2026-05-07 22:22 40.25931 -82.63399 6001 ft 299 kts 157°
2026-05-07 22:23 40.24012 -82.62719 5996 ft 276 kts 172°
2026-05-07 22:23 40.22214 -82.62280 5997 ft 257 kts 173°
2026-05-07 22:23 40.20511 -82.61854 5998 ft 242 kts 172°
2026-05-07 22:23 40.18903 -82.61447 6001 ft 228 kts 173°
2026-05-07 22:24 40.17361 -82.61247 5867 ft 221 kts 182°
2026-05-07 22:24 40.15809 -82.61191 5526 ft 226 kts 182°
2026-05-07 22:24 40.14210 -82.61142 5171 ft 231 kts 182°
2026-05-07 22:24 40.12618 -82.61103 5026 ft 226 kts 182°
2026-05-07 22:25 40.11078 -82.61065 4999 ft 215 kts 182°
2026-05-07 22:25 40.09623 -82.61028 5000 ft 204 kts 182°
2026-05-07 22:25 40.08247 -82.60986 5000 ft 192 kts 182°
2026-05-07 22:25 40.06944 -82.60937 5001 ft 182 kts 182°
2026-05-07 22:26 40.05712 -82.60882 4985 ft 172 kts 182°
2026-05-07 22:26 40.05310 -82.60867 4933 ft 185 kts 183°
2026-05-07 22:26 40.03885 -82.60915 5183 ft 205 kts 192°
2026-05-07 22:26 40.02646 -82.61668 5003 ft 191 kts 231°
2026-05-07 22:27 40.02022 -82.63067 4996 ft 170 kts 252°
2026-05-07 22:27 40.01590 -82.64436 5000 ft 156 kts 252°
2026-05-07 22:27 40.01195 -82.65687 4994 ft 142 kts 252°
2026-05-07 22:27 40.00832 -82.66801 4978 ft 127 kts 252°
2026-05-07 22:28 40.00442 -82.68008 5075 ft 154 kts 251°
2026-05-07 22:28 39.99985 -82.69447 4930 ft 175 kts 251°
2026-05-07 22:28 39.99510 -82.70937 4616 ft 181 kts 252°
2026-05-07 22:28 39.99034 -82.72486 4309 ft 187 kts 253°
2026-05-07 22:29 39.98586 -82.74107 3940 ft 193 kts 256°
2026-05-07 22:29 39.98270 -82.75741 3675 ft 180 kts 265°
2026-05-07 22:29 39.98267 -82.77322 3395 ft 170 kts 280°
2026-05-07 22:29 39.98487 -82.78827 3006 ft 168 kts 285°
2026-05-07 22:30 39.98731 -82.80230 2767 ft 150 kts 284°
2026-05-07 22:30 39.98845 -82.81525 2410 ft 144 kts 278°
2026-05-07 22:30 39.98901 -82.82832 1984 ft 143 kts 278°
2026-05-07 22:30 39.98982 -82.84093 1591 ft 136 kts 279°
2026-05-07 22:31 39.99045 -82.85337 1292 ft 135 kts 277°
2026-05-07 22:31 39.99117 -82.86544 995 ft 131 kts 279°
2026-05-07 22:31 39.99182 -82.87684 828 ft 117 kts 280°
2026-05-07 22:31 39.99230 -82.88471 822 ft 34 kts 273°
2026-05-07 22:32 39.99238 -82.88675 822 ft 25 kts 278°
2026-05-07 22:32 39.99254 -82.88920 818 ft 24 kts 274°
2026-05-07 22:32 39.99262 -82.89053 820 ft 13 kts 279°
2026-05-07 22:32 39.99319 -82.89115 820 ft 12 kts 344°
2026-05-07 22:33 39.99407 -82.89104 819 ft 12 kts 18°
2026-05-07 22:33 39.99436 -82.89061 819 ft 3 kts 88°
2026-05-07 22:33 39.99430 -82.88914 820 ft 10 kts 94°
2026-05-07 22:33 39.99420 -82.88747 818 ft 24 kts 95°
2026-05-07 22:34 39.99407 -82.88518 819 ft 27 kts 94°
2026-05-07 22:34 39.99403 -82.88365 820 ft 6 kts 81°
2026-05-07 22:34 39.99422 -82.88330 819 ft 5 kts 16°
2026-05-07 22:34 39.99482 -82.88320 820 ft 5 kts
2026-05-07 22:35 39.99529 -82.88315 819 ft 8 kts
2026-05-07 22:35 39.99588 -82.88309 817 ft 22 kts
2026-05-07 22:35 39.99611 -82.88248 819 ft 6 kts 88°
2026-05-07 22:35 39.99613 -82.88147 820 ft 18 kts 89°
2026-05-07 22:36 39.99622 -82.88088 820 ft 3 kts 52°
2026-05-07 22:36 39.99642 -82.88073 821 ft 4 kts 25°
2026-05-07 22:36 39.99667 -82.88059 821 ft 0 kts 23°